Location: Maccacari
(45.1333°N, 11.1333°E)
Time: 03:03:54
(UTC+00:00)

Altair - Pass Details

Date: 24 January 2021
Orbit: 1501 x 1682 km, 47.2° (Epoch: 01 March)

Event Time Altitude Azimuth Distance (km) Brightness Sun altitude
Rises 07:04:52 0° 269° (W) 4,909 9.6 2.4°
Reaches altitude 10° 07:08:01 10° 271° (W) 3,933 9.1 2.9°
Maximum altitude 07:18:13 79° 359° (N) 1,710 7.8 4.4°
Drops below altitude 10° 07:28:23 10° 87° (E) 3,919 10.6 5.9°
Sets 07:31:32 0° 89° (E) 4,890 11.1 6.4°
